User: anonymous   Login
Location: Newark
(36.1358°N, 115.1208°W)
Time: 03:28:47
(UTC+00:00)
Language:

NUDT-PHONESAT - Orbit

View from above orbital plane
View from above orbital plane
View from above satellite
View from above satellite

Ground track
Ground track

The orbit data is extracted from the following two-line orbital elements,

1 40900U 15049B   20092.83533742  .00002059  00000-0  88387-4 0  9994
2 40900  97.4337 104.4560 0010866 250.6240 233.4878 15.23809450251525
Epoch (UTC): 01 April 2020 20:02:53
Eccentricity: 0.0010866
inclination: 97.4337°
perigee height: 487 km
apogee height: 502 km
right ascension of ascending node: 104.4560°
argument of perigee: 250.6240°
revolutions per day: 15.23809450
mean anomaly at epoch: 233.4878°
orbit number at epoch: 25152

The dashed part of the orbit path shows where the satellite is in the earth's shadow,  

DLR